CW9742 Weather Reports


Display with metric or nautical units.
time (UTC)temp
F
wind
direction
speed
MPH
gust
MPH
rain 1hr
in
rain 24hr
in
rain mn
in
humidity
%
barometer
mb
20260502163012 43 326 3.0 10.0 0.00 0.00 0.00 53 1018.4
20260502161508 43 355 3.0 9.0 0.00 0.00 0.00 51 1018.5
20260502151507 42 325 2.0 8.0 0.00 0.00 0.00 53 1018.4
20260502123055 37 335 2.0 6.0 0.00 0.00 0.00 77 1018.9
20260502121537 36 337 0.0 0.0 0.00 0.00 0.00 79 1019.0
20260502114536 34 336 0.0 0.0 0.00 0.00 0.00 84 1019.0
20260502113035 33 336 0.0 0.0 0.00 0.00 0.00 85 1018.9
20260502111531 32 336 0.0 0.0 0.00 0.00 0.00 85 1018.7
20260502110030 32 336 0.0 0.0 0.00 0.00 0.00 84 1018.6
20260502104535 32 336 0.0 0.0 0.00 0.00 0.00 83 1018.5
20260502103026 32 336 0.0 0.0 0.00 0.00 0.00 83 1018.4
20260502101525 33 336 0.0 0.0 0.00 0.00 0.00 82 1018.3
20260502091515 34 336 0.0 0.0 0.00 0.00 0.00 78 1017.9
20260502071501 38 336 0.0 0.0 0.00 0.00 0.00 70 1017.5
20260502064601 38 336 0.0 0.0 0.00 0.00 0.00 68 1017.6
20260502063057 38 336 0.0 0.0 0.00 0.00 0.00 67 1017.7
20260502061555 39 5 0.0 0.0 0.00 0.00 0.00 66 1017.8
20260502060057 39 5 0.0 0.0 0.00 0.00 0.00 65 1017.7
20260502054558 39 5 0.0 0.0 0.00 0.00 0.00 65 1017.8
20260502053109 39 9 0.0 0.0 0.00 0.00 0.00 65 1017.7
20260502051551 39 24 0.0 0.0 0.00 0.00 0.00 64 1017.7
20260502050053 39 24 0.0 0.0 0.00 0.00 0.00 63 1017.7
20260502044545 40 19 0.0 0.0 0.00 0.00 0.00 63 1017.5
20260502043044 40 21 0.0 0.0 0.00 0.00 0.00 62 1017.5
20260502041544 40 28 0.0 0.0 0.00 0.00 0.00 62 1017.4
20260502040045 40 28 0.0 0.0 0.00 0.00 0.00 62 1017.3
20260502034540 40 28 0.0 0.0 0.00 0.00 0.00 62 1017.1
20260502033039 40 29 0.0 4.0 0.00 0.00 0.00 61 1017.1
20260502031539 40 38 2.0 8.0 0.00 0.00 0.00 60 1017.0
20260502030051 41 16 2.0 8.0 0.00 0.00 0.00 60 1017.0
20260502024543 41 5 2.0 7.0 0.00 0.00 0.00 59 1017.0
20260502023047 41 345 2.0 5.0 0.00 0.00 0.00 61 1016.8
20260502021540 41 40 3.0 9.0 0.00 0.00 0.00 60 1016.8
20260502020032 42 11 4.0 8.0 0.00 0.00 0.00 61 1016.7
20260502014538 42 27 2.0 6.0 0.00 0.00 0.00 60 1016.4
20260502013028 42 360 3.0 6.0 0.00 0.00 0.00 58 1016.3
20260502011527 42 326 2.0 8.0 0.00 0.00 0.00 61 1016.1
20260502010028 42 290 1.0 5.0 0.00 0.00 0.00 64 1015.9
20260502004524 42 289 2.0 5.0 0.00 0.00 0.00 64 1015.8
20260502003027 43 272 2.0 7.0 0.00 0.00 0.00 64 1015.8
20260502001523 43 288 2.0 7.0 0.00 0.00 0.00 64 1015.7
20260502000022 43 333 2.0 4.0 0.00 0.00 0.00 63 1015.6
20260501234522 43 297 2.0 5.0 0.00 0.00 0.00 64 1015.5
20260501233021 43 317 4.0 6.0 0.00 0.00 0.00 64 1015.6
20260501231522 44 325 2.0 6.0 0.00 0.00 0.00 63 1015.5
20260501230019 44 320 3.0 6.0 0.00 0.00 0.00 61 1015.4
20260501224517 44 294 3.0 6.0 0.00 0.00 0.00 61 1015.4
20260501223020 44 313 3.0 6.0 0.00 0.00 0.00 62 1015.3
20260501221516 44 290 2.0 5.0 0.00 0.00 0.00 63 1015.2
20260501220020 44 5 4.0 6.0 0.00 0.00 0.00 63 1015.2
20260501214515 44 332 2.0 6.0 0.00 0.00 0.00 64 1015.1
20260501213013 45 318 3.0 9.0 0.00 0.00 0.00 63 1015.1
20260501211513 44 360 3.0 8.0 0.00 0.00 0.00 62 1015.0
20260501210012 44 333 3.0 9.0 0.00 0.00 0.00 62 1015.0
20260501204510 46 346 3.0 6.0 0.00 0.00 0.00 58 1014.9
20260501203028 46 281 4.0 8.0 0.00 0.00 0.00 57 1014.7
20260501201509 46 323 4.0 8.0 0.00 0.00 0.00 58 1014.8
20260501200011 46 284 4.0 8.0 0.00 0.00 0.00 58 1014.7
20260501194508 46 360 3.0 8.0 0.00 0.00 0.00 57 1014.7
20260501193005 46 323 4.0 9.0 0.00 0.00 0.00 58 1014.6
20260501191505 46 280 2.0 8.0 0.00 0.00 0.00 59 1014.4
20260501190005 46 12 2.0 7.0 0.00 0.00 0.00 59 1014.4
20260501184508 46 322 4.0 6.0 0.00 0.00 0.00 57 1014.3
20260501183004 47 38 3.0 8.0 0.00 0.00 0.00 56 1014.2
20260501181602 48 317 1.0 7.0 0.00 0.00 0.00 56 1014.1
20260501174559 47 339 3.0 9.0 0.00 0.00 0.00 58 1014.2
20260501173115 46 25 2.0 10.0 0.00 0.00 0.00 60 1014.2
20260501171558 46 336 3.0 8.0 0.00 0.00 0.00 60 1014.2